Change the Weather History Date:

Thursday, January 24, 2013

  Actual Average Record
Temperature  
Mean Temperature 34 °F -  
Max Temperature 39 °F 28 °F 50 °F (1950)
Min Temperature 28 °F 20 °F -6 °F (1973)
Degree Days  
Heating Degree Days 30    
Moisture  
Dew Point 33 °F    
Average Humidity 95    
Maximum Humidity 100    
Minimum Humidity 76    
Precipitation  
Precipitation 0.07 in - - ()
Sea Level Pressure  
Sea Level Pressure 29.47 in    
Wind  
Wind Speed 3 mph (North)    
Max Wind Speed 10 mph    
Max Gust Speed 17 mph    
Visibility 7 miles    
Events Fog , Rain    
Averages and records for this station are not official NWS values.
T = Trace of Precipitation, MM = Missing Value Source: NWS Daily Summary

Daily Weather History Graph

Daily Weather History Graph

Search for Another Location

Airport or City:

Trip Planner

Search our weather history database for the weather conditions in past years. The results will help you decide how hot, cold, wet, or windy it might be!

Date:

Astronomy

Jan. 24, 2013 Rise Set
Actual Time 9:28 AM AKST 4:51 PM AKST
Civil Twilight 8:38 AM AKST 5:41 PM AKST
Nautical Twilight 7:46 AM AKST 6:34 PM AKST
Astronomical Twilight 6:57 AM AKST 7:23 PM AKST
Moon 2:53 PM AKST (1/24) 7:44 AM AKST (1/24)
Length of Visible Light 9h 02m
Length of Day
7h 23m
Waxing Gibbous, 95% of the Moon is Illuminated
Jan 24
Waxing Gibbous
Jan 26
Full
Feb 3
Last Quarter
Feb 9
New
Feb 17
First Quarter

Hourly Weather History & Observations

Time (AKST) Temp. Windchill Dew Point Humidity Pressure Visibility Wind Dir Wind Speed Gust Speed Precip Events Conditions
12:53 AM 39.0 °F - 32.0 °F 76% 29.34 in 10.0 mi Calm Calm - N/A   Overcast
1:53 AM 37.0 °F - 33.1 °F 86% 29.37 in 10.0 mi Calm Calm - 0.00 in Rain Light Rain
3:12 AM 39.2 °F 32.5 °F 35.6 °F 87% 29.40 in 10.0 mi South 10.4 mph 17.3 mph 0.01 in Rain Light Rain
3:53 AM 37.9 °F 32.1 °F 35.1 °F 89% 29.42 in 10.0 mi SSE 8.1 mph - 0.02 in Rain Light Rain
4:21 AM 37.4 °F 30.8 °F 35.6 °F 93% 29.43 in 10.0 mi SSE 9.2 mph - 0.01 in Rain Light Rain
4:30 AM 35.6 °F 28.0 °F 35.6 °F 100% 29.44 in 8.0 mi SSE 10.4 mph - 0.02 in Rain Light Rain
4:53 AM 37.0 °F 33.3 °F 36.0 °F 96% 29.44 in 9.0 mi Variable 4.6 mph - 0.03 in Rain Light Rain
5:53 AM 36.0 °F 33.3 °F 34.0 °F 93% 29.45 in 10.0 mi ESE 3.5 mph - 0.01 in Rain Light Rain
6:53 AM 35.1 °F - 34.0 °F 96% 29.47 in 10.0 mi Calm Calm - 0.00 in Rain Light Rain
7:53 AM 34.0 °F - 33.1 °F 96% 29.48 in 10.0 mi Calm Calm - 0.00 in   Overcast
8:53 AM 34.0 °F 31.0 °F 33.1 °F 96% 29.50 in 10.0 mi North 3.5 mph - 0.01 in   Overcast
9:17 AM 35.6 °F - 33.8 °F 93% 29.50 in 10.0 mi Calm Calm - N/A   Overcast
9:53 AM 35.1 °F - 34.0 °F 96% 29.51 in 10.0 mi Calm Calm - 0.00 in Rain Light Rain
10:04 AM 33.8 °F 30.8 °F 33.8 °F 100% 29.51 in 8.0 mi NW 3.5 mph - 0.00 in   Overcast
10:18 AM 33.8 °F 30.8 °F 33.8 °F 100% 29.51 in 7.0 mi NNW 3.5 mph - 0.00 in Rain Light Rain
10:53 AM 35.1 °F 32.2 °F 34.0 °F 96% 29.52 in 9.0 mi North 3.5 mph - 0.00 in   Overcast
11:31 AM 35.6 °F - 33.8 °F 93% 29.53 in 10.0 mi Calm Calm - N/A   Overcast
11:39 AM 35.6 °F 32.8 °F 35.6 °F 100% 29.53 in 10.0 mi NNW 3.5 mph - N/A   Overcast
11:53 AM 36.0 °F 32.1 °F 35.1 °F 97% 29.53 in 10.0 mi NNW 4.6 mph - N/A   Overcast
12:53 PM 37.0 °F - 34.0 °F 89% 29.53 in 10.0 mi Calm Calm - N/A   Overcast
1:53 PM 37.9 °F - 35.1 °F 89% 29.52 in 10.0 mi Calm Calm - N/A   Overcast
2:53 PM 37.0 °F - 35.1 °F 93% 29.50 in 10.0 mi Calm Calm - N/A   Overcast
3:53 PM 36.0 °F - 34.0 °F 93% 29.50 in 7.0 mi Calm Calm - N/A   Overcast
4:28 PM 35.6 °F - 33.8 °F 93% 29.50 in 1.0 mi Calm Calm - N/A   Overcast
4:43 PM 35.6 °F - 35.6 °F 100% 29.50 in 0.8 mi Calm Calm - N/A   Overcast
4:53 PM 35.1 °F - 35.1 °F 100% 29.50 in 0.5 mi Calm Calm - N/A Fog Fog
5:09 PM 35.6 °F - 33.8 °F 93% 29.49 in 1.5 mi Calm Calm - N/A   Overcast
5:11 PM 35.6 °F - 33.8 °F 93% 29.49 in 3.0 mi Calm Calm - N/A   Overcast
5:34 PM 33.8 °F - 33.8 °F 100% 29.49 in 2.5 mi Calm Calm - N/A   Overcast
5:51 PM 33.8 °F - 33.8 °F 100% 29.49 in 3.0 mi Calm Calm - N/A   Overcast
5:53 PM 34.0 °F - 33.1 °F 96% 29.49 in 4.0 mi Calm Calm - N/A   Overcast
6:53 PM 34.0 °F 31.0 °F 32.0 °F 92% 29.49 in 10.0 mi North 3.5 mph - N/A   Overcast
7:53 PM 33.1 °F - 32.0 °F 96% 29.47 in 10.0 mi Calm Calm - N/A   Overcast
8:53 PM 33.1 °F - 32.0 °F 96% 29.46 in 10.0 mi Calm Calm - N/A   Overcast
9:53 PM 30.9 °F 27.5 °F 30.0 °F 96% 29.46 in 2.5 mi NNW 3.5 mph - N/A   Overcast
10:01 PM 30.2 °F 26.7 °F 28.4 °F 93% 29.45 in 1.0 mi North 3.5 mph - N/A   Overcast
10:53 PM 30.0 °F 26.5 °F 28.9 °F 96% 29.44 in 0.8 mi North 3.5 mph - N/A   Mist
11:19 PM 30.2 °F - 30.2 °F 100% 29.43 in 10.0 mi Calm Calm - N/A   Scattered Clouds
11:53 PM 28.9 °F - 28.0 °F 96% 29.43 in 10.0 mi Calm Calm - N/A   Clear